Location: Newark
(47.5833°N, 8.1500°E)
Time: 18:31:59
(UTC+00:00)

Tiros 1 despin weight - Pass Details

Date: 05 November 2020
Orbit: 593 x 642 km, 48.2° (Epoch: 24 November)

Event Time Altitude Azimuth Distance (km) Brightness Sun altitude
Rises 23:13:02 0° 270° (W) 2,884 - -58.5°
Reaches altitude 10° 23:15:22 10° 272° (W) 1,970 - -58.4°
Maximum altitude 23:19:54 82° 359° (N) 618 - -58.4°
Drops below altitude 10° 23:24:22 10° 88° (E) 1,942 - -58.3°
Sets 23:26:38 0° 90° (E) 2,839 - -58.3°
